sat.trackr.live / text

‹ back to catalog

STARLINK-5132

NORAD 54007 · 2022-125AV

PAYLOAD ACTIVE UNKNOWN

§ Identity

Operator
Country
US
Launch date
2022-10-05
Launch site
AFWTR
Launch vehicle
Mass (kg)
RCS (m²)

Purposes: comms

External: N2YO · Heavens-Above · Gunter

§ Orbital elements

Epoch: 2026-05-24T13:47:34.391040Z

Period
95.44 min
Inclination
53.2152°
Eccentricity
0.0001190
Mean motion
15.08839663 rev/d
Perigee alt
538.9 km
Apogee alt
540.6 km
Semi-major
6,917.9 km
B*
3.2451e-5
RAAN
233.1017°
Arg perigee
87.5519°
Mean anomaly
272.5609°
Rev number
20,092

§ Raw data

STARLINK-51321 54007U 22125AV  26144.57470360  .00000229  00000+0  32451-4 0  99982 54007  53.2152 233.1017 0001190  87.5519 272.5609 15.08839663200922

JSON: /api/v1/satellites/54007 · /tle

For live sub-satellite position, see the globe view (requires WebGL).

§ Visibility from observer

Set your observer location to see the next 7 days of passes ≥ 10°. The values pass through the URL so the page stays shareable.

No JS? Fill the form by hand. The geolocation button needs JavaScript.